Flag for Cyprus Weather past 2 weeks in Nicosia, Cyprus

Now
104 °F

Passing clouds.


Feels Like: 103 °F
Forecast: 80 / 103 °F
Wind: 10 mph from Northeast

Location: Ercan

Current Time: Aug 2, 2015 at 2:25:11 PM

Latest Report: Aug 2, 2015 at 1:50 PM


Visibility: N/A

Pressure: 29.80 "Hg

Humidity: 20%

Dew point: 55 °F

Location of NicosiaLocation

Historic Weather in Nicosia — Graph

°F

Nicosia temperature yesterday

Maximum temperature yesterday: 100 °F (at 1:50 PM)
Minimum temperature yesterday: 75 °F (at 4:20 AM)
Average temperature yesterday: 87 °F

Past Weeks' High & Low Weather Summary

 TemperatureHumidityPressure
High104 °F (Jul 21, 1:50 PM)94% (Jul 24, 5:20 AM)29.83 "Hg (Jul 24, 5:20 AM)
Low64 °F (Jul 24, 5:50 AM)11% (Jul 19, 1:50 PM)29.62 "Hg (Jul 20, 2:20 AM)
Average86 °F51%29.70 "Hg
* Reported Jul 18 12:20 PM — Aug 2 12:50 PM, Nicosia, Weather by CustomWeather, © 2015

Note: Actual official high and low records may vary slightly from our data, if they occured in-between our weather recording intervals... More about our weather records

Advertising

Nicosia weather history for previous 24 hours

 ConditionsComfort  
Time TempWeatherWind HumidityBarometerVisibility
12:50 PM
Sun, Aug 2
104 °FPassing clouds.13 mph20%29.80 "HgN/A
12:20 PM102 °FPassing clouds.9 mph23%29.80 "HgN/A
11:50 AM99 °FSunny.6 mph33%29.80 "Hg10 mi
11:20 AM97 °FSunny.5 mph32%29.80 "Hg10 mi
10:50 AM95 °FSunny.6 mph34%29.83 "Hg10 mi
10:20 AM95 °FSunny.3 mph34%29.83 "Hg10 mi
9:50 AM93 °FSunny.5 mph39%29.80 "Hg10 mi
9:20 AM91 °FSunny.7 mph41%29.80 "Hg10 mi
8:50 AM88 °FSunny.9 mph46%29.80 "Hg10 mi
8:20 AM86 °FPassing clouds.10 mph52%29.80 "HgN/A
7:50 AM81 °FSunny.10 mph70%29.80 "Hg10 mi
7:20 AM79 °FSunny.9 mph74%29.80 "Hg10 mi
6:50 AM75 °FClear.7 mph78%29.80 "Hg10 mi
6:20 AM75 °FClear.6 mph78%29.80 "Hg10 mi
5:50 AM75 °FClear.5 mph78%29.80 "Hg10 mi
5:20 AM75 °FClear.6 mph78%29.80 "Hg10 mi
4:50 AM75 °FClear.5 mph78%29.80 "Hg10 mi
4:20 AM75 °FClear.5 mph78%29.80 "Hg10 mi
3:50 AM77 °FClear.7 mph79%29.77 "Hg10 mi
3:20 AM77 °FClear.8 mph79%29.77 "Hg10 mi
2:50 AM79 °FClear.8 mph74%29.77 "Hg10 mi
2:20 AM77 °FClear.8 mph74%29.77 "Hg10 mi
1:50 AM79 °FClear.5 mph65%29.77 "Hg10 mi
12:50 AM79 °FClear.6 mph58%29.80 "Hg10 mi
12:20 AM81 °FClear.5 mph58%29.80 "Hg10 mi
11:50 PM
Sat, Aug 1
81 °FClear.6 mph54%29.80 "Hg10 mi
11:20 PM82 °FClear.3 mph51%29.80 "Hg10 mi
10:50 PM82 °FClear.5 mph48%29.80 "Hg10 mi
10:20 PM84 °FClear.5 mph43%29.80 "Hg10 mi
9:50 PM84 °FPassing clouds.7 mph62%29.80 "HgN/A
9:20 PM86 °FClear.7 mph38%29.77 "Hg10 mi
8:50 PM86 °FClear.3 mph49%29.77 "Hg10 mi
8:20 PM88 °FSunny.3 mph52%29.77 "Hg10 mi
7:50 PM90 °FSunny.6 mph49%29.74 "Hg10 mi
7:20 PM90 °FPassing clouds.8 mph49%29.74 "HgN/A
6:50 PM91 °FSunny.9 mph46%29.74 "Hg10 mi
6:20 PM91 °FSunny.13 mph46%29.74 "Hg10 mi
5:50 PM93 °FPassing clouds.13 mph44%29.74 "HgN/A
5:20 PM95 °FSunny.13 mph44%29.74 "Hg10 mi
4:50 PM95 °FPassing clouds.13 mph44%29.74 "HgN/A
4:20 PM95 °FPassing clouds.13 mph44%29.74 "HgN/A
3:50 PM97 °FPassing clouds.15 mph42%29.74 "HgN/A
3:20 PM99 °FPassing clouds.16 mph39%29.74 "HgN/A
2:50 PM99 °FPassing clouds.13 mph37%29.74 "HgN/A
2:20 PM99 °FPassing clouds.13 mph35%29.74 "HgN/A
Weather by CustomWeather, © 2015

See weather overviewHow to use our weather pages